Погода в Заветах Ильича

Россия / Хабаровский край     49°02′10″N   140°16′08″E
темп.,
°C
ветер,
м/с
пор.,
м/с
влажн.,
%
обл.,
%
осадки,
мм/ч
давл.,
гПа
погр.,
м
10 апреля, сб
сб1001:00−4зюз228560 0.0 102341
04:00−4з22765 0.0 102230
07:00−2з12685 0.0 102359
10:00+6сз24430 0.0 1022661
13:00+9сз24413 0.0 10221356
16:00+10зсз24404 0.0 10221523
19:00+6зюз11645 0.0 102211
22:00+2зюз22725 0.0 102424
11 апреля, вс
вс1101:00+2зюз33715 0.0 102334
04:00+1зюз33655 0.0 102333
07:00+2зюз236070 0.0 102349
10:00+11ююз4638100 0.0 1021496
13:00+15ююз5831100 0.0 10191677
16:00+13ююз51140100 0.0 10171699
19:00+11юз3752100 0.0 1018226
22:00+7з117091 0.0 102013
12 апреля, пн
пн1201:00+7зюз2272100 0.0 101918
04:00+6вюв1180100 0.2 101728
07:00+3с2391100 0.1 1015152
10:00+4с2391100 0.3 1016161
13:00+8ююв247695 0.0 1015455
16:00+8ююв2472100 0.0 1012327
19:00+4св3488100 0.0 1012143
22:00−1св5895100 0.0 1013293
13 апреля, вт
вт1301:00−1св3694100 0.1 1012365
04:00−2св4690100 0.1 1010389
07:00−2св3588100 0.1 1008417
10:00−2всв4584100 0.1 1007566
13:00−2св5684100 0.1 1005572
16:00−3ссв4790100 0.4 1004490
19:00−3св4895100 2.9 1004431
22:00−3ссв3692100 4.1 1004387
14 апреля, ср
ср1401:00−3сз1292100 0.4 1003133
04:00−4ссз129399 0.4 1003101
07:00−2сз377087 0.1 1005975
10:000сз5646100 0.1 10071842
13:00+1с3645100 0.0 10081834
16:000всв1358100 0.4 1009560
19:00−2юв127887 0.9 1012122
22:00−6зюз22926 0.9 101537